| time (UTC) | temp F | wind direction | speed MPH | gust MPH | rain 1hr in | rain 24hr in | rain mn in | humidity % | barometer mb |
| 20260505223610 | 52 | 225 | 2.0 | 4.0 | 0.00 | 0.32 | 0.00 | 97 | 1005.4 |
| 20260505223111 | 52 | 280 | 1.0 | 2.0 | 0.00 | 0.32 | 0.00 | 97 | 1005.4 |
| 20260505222606 | 52 | 293 | 1.0 | 2.0 | 0.00 | 0.32 | 0.00 | 97 | 1005.4 |
| 20260505222104 | 52 | 293 | 1.0 | 2.0 | 0.00 | 0.32 | 0.00 | 97 | 1005.3 |
| 20260505221623 | 52 | 293 | 2.0 | 2.0 | 0.00 | 0.32 | 0.00 | 97 | 1005.4 |
| 20260505221101 | 52 | 293 | 1.0 | 2.0 | 0.00 | 0.32 | 0.00 | 97 | 1005.4 |
| 20260505220619 | 52 | 293 | 1.0 | 2.0 | 0.00 | 0.32 | 0.00 | 97 | 1005.4 |
| 20260505220057 | 52 | 293 | 1.0 | 2.0 | 0.00 | 0.32 | 0.00 | 97 | 1005.4 |
| 20260505215556 | 52 | 293 | 0.0 | 2.0 | 0.00 | 0.32 | 0.32 | 97 | 1005.4 |
| 20260505215054 | 52 | 293 | 2.0 | 2.0 | 0.00 | 0.32 | 0.32 | 97 | 1005.5 |
| 20260505214552 | 52 | 293 | 1.0 | 2.0 | 0.00 | 0.32 | 0.32 | 97 | 1005.5 |
| 20260505214050 | 52 | 293 | 1.0 | 2.0 | 0.00 | 0.32 | 0.32 | 97 | 1005.5 |
| 20260505213552 | 52 | 293 | 1.0 | 2.0 | 0.00 | 0.32 | 0.32 | 97 | 1005.5 |
| 20260505213050 | 52 | 293 | 1.0 | 2.0 | 0.00 | 0.32 | 0.32 | 97 | 1005.4 |
| 20260505212545 | 52 | 0.0 | 2.0 | 0.00 | 0.32 | 0.32 | 96 | 1005.4 | |
| 20260505212043 | 52 | 293 | 1.0 | 2.0 | 0.00 | 0.32 | 0.32 | 96 | 1005.4 |
| 20260505211541 | 52 | 293 | 0.0 | 2.0 | 0.00 | 0.32 | 0.32 | 96 | 1005.4 |
| 20260505211040 | 52 | 0.0 | 0.0 | 0.00 | 0.32 | 0.32 | 96 | 1005.4 | |
| 20260505210558 | 53 | 0.0 | 2.0 | 0.00 | 0.32 | 0.32 | 96 | 1005.5 | |
| 20260505210036 | 53 | 0.0 | 2.0 | 0.00 | 0.32 | 0.32 | 96 | 1005.4 | |
| 20260505205540 | 53 | 293 | 1.0 | 2.0 | 0.00 | 0.32 | 0.32 | 96 | 1005.3 |
| 20260505205033 | 53 | 0.0 | 0.0 | 0.00 | 0.32 | 0.32 | 96 | 1005.3 | |
| 20260505204531 | 53 | 293 | 0.0 | 2.0 | 0.00 | 0.32 | 0.32 | 96 | 1005.3 |
| 20260505204029 | 53 | 293 | 0.0 | 2.0 | 0.00 | 0.32 | 0.32 | 96 | 1005.3 |
| 20260505203527 | 53 | 293 | 1.0 | 2.0 | 0.00 | 0.32 | 0.32 | 95 | 1005.4 |
| 20260505203025 | 53 | 293 | 1.0 | 2.0 | 0.00 | 0.32 | 0.32 | 95 | 1005.2 |
| 20260505202523 | 53 | 293 | 1.0 | 2.0 | 0.00 | 0.32 | 0.32 | 95 | 1005.1 |
| 20260505202041 | 53 | 293 | 1.0 | 2.0 | 0.00 | 0.32 | 0.32 | 95 | 1005.1 |
| 20260505201540 | 53 | 293 | 0.0 | 2.0 | 0.00 | 0.32 | 0.32 | 95 | 1005.2 |
| 20260505201018 | 53 | 293 | 1.0 | 2.0 | 0.00 | 0.32 | 0.32 | 95 | 1005.1 |
| 20260505200536 | 54 | 296 | 1.0 | 2.0 | 0.00 | 0.32 | 0.32 | 94 | 1005.1 |
| 20260505200114 | 54 | 315 | 0.0 | 2.0 | 0.00 | 0.32 | 0.32 | 94 | 1005.1 |
| 20260505195612 | 54 | 315 | 2.0 | 4.0 | 0.00 | 0.32 | 0.32 | 94 | 1005.0 |
| 20260505195111 | 54 | 315 | 1.0 | 2.0 | 0.00 | 0.32 | 0.32 | 94 | 1005.1 |
| 20260505194611 | 54 | 315 | 1.0 | 4.0 | 0.00 | 0.32 | 0.32 | 94 | 1005.1 |
| 20260505194127 | 54 | 313 | 1.0 | 2.0 | 0.00 | 0.32 | 0.32 | 94 | 1005.0 |
| 20260505193606 | 54 | 306 | 3.0 | 6.0 | 0.00 | 0.32 | 0.32 | 93 | 1005.0 |
| 20260505193104 | 54 | 315 | 2.0 | 4.0 | 0.00 | 0.32 | 0.32 | 94 | 1005.0 |
| 20260505192602 | 54 | 318 | 3.0 | 6.0 | 0.00 | 0.32 | 0.32 | 93 | 1005.0 |
| 20260505192100 | 54 | 323 | 3.0 | 4.0 | 0.00 | 0.32 | 0.32 | 93 | 1004.8 |
| 20260505191558 | 54 | 315 | 2.0 | 6.0 | 0.00 | 0.32 | 0.32 | 93 | 1004.9 |
| 20260505191056 | 54 | 301 | 3.0 | 7.0 | 0.00 | 0.32 | 0.32 | 93 | 1005.1 |
| 20260505190555 | 54 | 295 | 1.0 | 4.0 | 0.00 | 0.32 | 0.32 | 94 | 1005.2 |
| 20260505190053 | 54 | 289 | 2.0 | 4.0 | 0.00 | 0.32 | 0.32 | 94 | 1005.2 |
| 20260505185551 | 54 | 315 | 2.0 | 4.0 | 0.00 | 0.32 | 0.32 | 93 | 1005.1 |
| 20260505185050 | 54 | 308 | 1.0 | 4.0 | 0.00 | 0.32 | 0.32 | 94 | 1005.0 |
| 20260505184550 | 54 | 270 | 1.0 | 2.0 | 0.00 | 0.32 | 0.32 | 94 | 1005.0 |
| 20260505184045 | 54 | 263 | 1.0 | 2.0 | 0.00 | 0.32 | 0.32 | 94 | 1005.0 |
| 20260505183543 | 54 | 252 | 1.0 | 4.0 | 0.00 | 0.32 | 0.32 | 94 | 1005.0 |
| 20260505183057 | 54 | 278 | 2.0 | 4.0 | 0.00 | 0.32 | 0.32 | 93 | 1005.0 |
| 20260505182540 | 54 | 315 | 1.0 | 4.0 | 0.00 | 0.32 | 0.32 | 93 | 1004.9 |
| 20260505182038 | 55 | 310 | 1.0 | 4.0 | 0.00 | 0.32 | 0.32 | 93 | 1004.9 |
| 20260505181536 | 55 | 319 | 2.0 | 4.0 | 0.00 | 0.32 | 0.32 | 92 | 1004.9 |
| 20260505181034 | 55 | 315 | 2.0 | 6.0 | 0.00 | 0.32 | 0.32 | 93 | 1004.8 |
| 20260505180533 | 55 | 307 | 2.0 | 4.0 | 0.00 | 0.32 | 0.32 | 93 | 1004.7 |
| 20260505180051 | 55 | 315 | 0.0 | 2.0 | 0.00 | 0.32 | 0.32 | 93 | 1004.7 |
| 20260505175529 | 55 | 274 | 2.0 | 4.0 | 0.00 | 0.32 | 0.32 | 93 | 1004.7 |
| 20260505175027 | 55 | 288 | 2.0 | 4.0 | 0.00 | 0.32 | 0.32 | 93 | 1004.6 |
| 20260505174526 | 55 | 292 | 1.0 | 4.0 | 0.00 | 0.32 | 0.32 | 94 | 1004.5 |
| 20260505174024 | 55 | 299 | 2.0 | 6.0 | 0.02 | 0.32 | 0.32 | 93 | 1004.4 |
| 20260505173522 | 54 | 311 | 3.0 | 4.0 | 0.04 | 0.32 | 0.32 | 93 | 1004.4 |
| 20260505173021 | 54 | 307 | 2.0 | 4.0 | 0.05 | 0.32 | 0.32 | 93 | 1004.4 |
| 20260505172519 | 54 | 308 | 2.0 | 4.0 | 0.06 | 0.32 | 0.32 | 93 | 1004.3 |
| 20260505172017 | 54 | 306 | 2.0 | 6.0 | 0.07 | 0.32 | 0.32 | 92 | 1004.3 |
| 20260505171515 | 54 | 277 | 2.0 | 7.0 | 0.09 | 0.32 | 0.32 | 92 | 1004.3 |
| 20260505171115 | 54 | 301 | 3.0 | 6.0 | 0.11 | 0.32 | 0.32 | 92 | 1004.2 |
| 20260505170612 | 54 | 254 | 2.0 | 4.0 | 0.13 | 0.32 | 0.32 | 92 | 1004.4 |
| 20260505170110 | 54 | 296 | 2.0 | 4.0 | 0.15 | 0.32 | 0.32 | 93 | 1004.3 |
| 20260505165708 | 54 | 315 | 2.0 | 6.0 | 0.18 | 0.32 | 0.32 | 92 | 1004.4 |
| 20260505165106 | 54 | 311 | 3.0 | 6.0 | 0.19 | 0.32 | 0.32 | 92 | 1004.4 |
| 20260505164605 | 54 | 311 | 3.0 | 6.0 | 0.20 | 0.32 | 0.32 | 91 | 1004.6 |
| 20260505164103 | 54 | 315 | 2.0 | 4.0 | 0.19 | 0.30 | 0.30 | 91 | 1004.7 |
| 20260505163601 | 54 | 315 | 2.0 | 4.0 | 0.18 | 0.28 | 0.28 | 90 | 1004.9 |
| 20260505163059 | 54 | 309 | 3.0 | 6.0 | 0.17 | 0.27 | 0.27 | 91 | 1005.0 |
| 20260505162558 | 54 | 236 | 3.0 | 7.0 | 0.18 | 0.26 | 0.26 | 91 | 1005.3 |
| 20260505162056 | 54 | 225 | 3.0 | 7.0 | 0.19 | 0.25 | 0.25 | 91 | 1005.5 |
| 20260505161554 | 55 | 246 | 5.0 | 11.0 | 0.19 | 0.22 | 0.22 | 90 | 1005.4 |
| 20260505161052 | 55 | 221 | 3.0 | 8.0 | 0.21 | 0.21 | 0.21 | 91 | 1005.4 |
| 20260505160551 | 55 | 205 | 5.0 | 11.0 | 0.19 | 0.19 | 0.19 | 90 | 1005.4 |
| 20260505153038 | 58 | 270 | 3.0 | 8.0 | 0.11 | 0.11 | 0.11 | 81 | 1004.2 |
| 20260505152536 | 59 | 257 | 3.0 | 6.0 | 0.08 | 0.08 | 0.08 | 77 | 1004.2 |
| 20260505152055 | 61 | 224 | 7.0 | 13.0 | 0.06 | 0.06 | 0.06 | 70 | 1004.2 |
| 20260505151533 | 64 | 229 | 5.0 | 11.0 | 0.04 | 0.04 | 0.04 | 64 | 1004.0 |
| 20260505151031 | 65 | 262 | 2.0 | 6.0 | 0.00 | 0.00 | 0.00 | 60 | 1003.7 |
| 20260505150533 | 66 | 315 | 2.0 | 4.0 | 0.00 | 0.00 | 0.00 | 58 | 1003.5 |
| 20260505140607 | 68 | 338 | 1.0 | 2.0 | 0.00 | 0.00 | 0.00 | 53 | 1003.8 |
| 20260505140105 | 68 | 349 | 1.0 | 4.0 | 0.00 | 0.00 | 0.00 | 52 | 1003.9 |
| 20260505125041 | 70 | 358 | 3.0 | 8.0 | 0.00 | 0.00 | 0.00 | 52 | 1004.6 |
| 20260505124539 | 71 | 38 | 4.0 | 9.0 | 0.00 | 0.00 | 0.00 | 51 | 1004.7 |
| 20260505124037 | 70 | 340 | 3.0 | 7.0 | 0.00 | 0.00 | 0.00 | 52 | 1004.7 |
| 20260505123535 | 69 | 313 | 4.0 | 8.0 | 0.00 | 0.00 | 0.00 | 54 | 1004.8 |
| 20260505123033 | 69 | 308 | 5.0 | 9.0 | 0.00 | 0.00 | 0.00 | 53 | 1004.9 |
| 20260505122531 | 70 | 306 | 6.0 | 11.0 | 0.00 | 0.00 | 0.00 | 53 | 1004.9 |
| 20260505122030 | 69 | 299 | 4.0 | 8.0 | 0.00 | 0.00 | 0.00 | 52 | 1004.9 |
| 20260505121528 | 70 | 343 | 6.0 | 11.0 | 0.00 | 0.00 | 0.00 | 54 | 1004.9 |
| 20260505121025 | 70 | 335 | 3.0 | 9.0 | 0.00 | 0.00 | 0.00 | 52 | 1004.9 |
| 20260505120527 | 72 | 315 | 4.0 | 9.0 | 0.00 | 0.00 | 0.00 | 50 | 1005.0 |
| 20260505120022 | 71 | 328 | 3.0 | 9.0 | 0.00 | 0.00 | 0.00 | 50 | 1005.0 |
| 20260505115520 | 71 | 305 | 5.0 | 9.0 | 0.00 | 0.00 | 0.00 | 50 | 1005.1 |
| 20260505115018 | 70 | 330 | 3.0 | 6.0 | 0.00 | 0.00 | 0.00 | 50 | 1005.1 |
| 20260505114517 | 69 | 323 | 2.0 | 6.0 | 0.00 | 0.00 | 0.00 | 49 | 1005.2 |
| 20260505114015 | 69 | 349 | 2.0 | 4.0 | 0.00 | 0.00 | 0.00 | 49 | 1005.3 |
| 20260505113613 | 68 | 16 | 2.0 | 4.0 | 0.00 | 0.00 | 0.00 | 50 | 1005.3 |
| 20260505113112 | 69 | 29 | 2.0 | 6.0 | 0.00 | 0.00 | 0.00 | 50 | 1005.3 |
| 20260505112610 | 69 | 23 | 2.0 | 4.0 | 0.00 | 0.00 | 0.00 | 48 | 1005.4 |
| 20260505112108 | 69 | 4 | 2.0 | 4.0 | 0.00 | 0.00 | 0.00 | 48 | 1005.4 |
| 20260505111607 | 68 | 38 | 2.0 | 4.0 | 0.00 | 0.00 | 0.00 | 49 | 1005.4 |
| 20260505111105 | 69 | 35 | 4.0 | 8.0 | 0.00 | 0.00 | 0.00 | 49 | 1005.5 |
| 20260505110623 | 69 | 347 | 3.0 | 6.0 | 0.00 | 0.00 | 0.00 | 49 | 1005.6 |
| 20260505102047 | 69 | 6 | 3.0 | 6.0 | 0.00 | 0.00 | 0.00 | 50 | 1005.8 |
| 20260505101545 | 69 | 338 | 1.0 | 6.0 | 0.00 | 0.00 | 0.00 | 50 | 1005.9 |
| 20260505101043 | 69 | 315 | 1.0 | 4.0 | 0.00 | 0.00 | 0.00 | 51 | 1005.9 |
| 20260505100541 | 69 | 311 | 3.0 | 7.0 | 0.00 | 0.00 | 0.00 | 49 | 1005.9 |
| 20260505100040 | 70 | 326 | 3.0 | 8.0 | 0.00 | 0.00 | 0.00 | 49 | 1005.9 |
| 20260505095538 | 69 | 335 | 3.0 | 8.0 | 0.00 | 0.00 | 0.00 | 51 | 1006.0 |
| 20260505095036 | 69 | 37 | 3.0 | 7.0 | 0.00 | 0.00 | 0.00 | 53 | 1006.0 |
| 20260505094534 | 68 | 338 | 2.0 | 8.0 | 0.00 | 0.00 | 0.00 | 53 | 1006.1 |
| 20260505094052 | 69 | 19 | 3.0 | 11.0 | 0.00 | 0.00 | 0.00 | 53 | 1006.2 |
| 20260505093530 | 69 | 336 | 3.0 | 7.0 | 0.00 | 0.00 | 0.00 | 53 | 1006.2 |
| 20260505093051 | 69 | 332 | 2.0 | 7.0 | 0.00 | 0.00 | 0.00 | 53 | 1006.3 |
| 20260505092527 | 69 | 352 | 4.0 | 7.0 | 0.00 | 0.00 | 0.00 | 56 | 1006.4 |
| 20260505092025 | 69 | 315 | 2.0 | 6.0 | 0.00 | 0.00 | 0.00 | 55 | 1006.5 |
| 20260505091524 | 68 | 15 | 1.0 | 4.0 | 0.00 | 0.00 | 0.00 | 56 | 1006.5 |
| 20260505091022 | 66 | 321 | 1.0 | 4.0 | 0.00 | 0.00 | 0.00 | 58 | 1006.5 |
| 20260505090520 | 67 | 13 | 1.0 | 4.0 | 0.00 | 0.00 | 0.00 | 56 | 1006.6 |
| 20260505090018 | 68 | 63 | 2.0 | 4.0 | 0.00 | 0.00 | 0.00 | 54 | 1006.6 |
| 20260505085537 | 67 | 20 | 1.0 | 4.0 | 0.00 | 0.00 | 0.00 | 55 | 1006.6 |
| 20260505085116 | 68 | 25 | 3.0 | 6.0 | 0.00 | 0.00 | 0.00 | 57 | 1006.6 |
| 20260505084613 | 67 | 113 | 1.0 | 4.0 | 0.00 | 0.00 | 0.00 | 60 | 1006.6 |
| 20260505084112 | 67 | 112 | 2.0 | 4.0 | 0.00 | 0.00 | 0.00 | 60 | 1006.6 |
| 20260505083610 | 68 | 106 | 2.0 | 4.0 | 0.00 | 0.00 | 0.00 | 59 | 1006.7 |
| 20260505083108 | 66 | 23 | 1.0 | 4.0 | 0.00 | 0.00 | 0.00 | 61 | 1006.8 |
| 20260505082606 | 67 | 40 | 2.0 | 4.0 | 0.00 | 0.00 | 0.00 | 61 | 1006.9 |
| 20260505082104 | 66 | 23 | 0.0 | 2.0 | 0.00 | 0.00 | 0.00 | 60 | 1006.9 |
| 20260505081606 | 65 | 23 | 2.0 | 4.0 | 0.00 | 0.00 | 0.00 | 61 | 1006.9 |
| 20260505081101 | 66 | 45 | 2.0 | 4.0 | 0.00 | 0.00 | 0.00 | 61 | 1006.9 |
| 20260505080600 | 66 | 30 | 2.0 | 4.0 | 0.00 | 0.00 | 0.00 | 60 | 1007.0 |
| 20260505080058 | 67 | 17 | 0.0 | 4.0 | 0.00 | 0.00 | 0.00 | 60 | 1007.0 |
| 20260505075555 | 67 | 0 | 0.0 | 2.0 | 0.00 | 0.00 | 0.00 | 58 | 1007.0 |
| 20260505075054 | 66 | 324 | 1.0 | 2.0 | 0.00 | 0.00 | 0.00 | 60 | 1007.1 |
| 20260505074552 | 66 | 315 | 0.0 | 2.0 | 0.00 | 0.00 | 0.00 | 62 | 1007.2 |
| 20260505074050 | 65 | 324 | 1.0 | 2.0 | 0.00 | 0.00 | 0.00 | 64 | 1007.2 |
| 20260505073609 | 64 | 338 | 1.0 | 2.0 | 0.00 | 0.00 | 0.00 | 66 | 1007.3 |
| 20260505073047 | 63 | 338 | 1.0 | 2.0 | 0.00 | 0.00 | 0.00 | 68 | 1007.3 |
| 20260505072545 | 62 | 338 | 1.0 | 2.0 | 0.00 | 0.00 | 0.00 | 69 | 1007.4 |
| 20260505072043 | 61 | 338 | 1.0 | 4.0 | 0.00 | 0.00 | 0.00 | 71 | 1007.4 |
| 20260505071541 | 61 | 338 | 1.0 | 2.0 | 0.00 | 0.00 | 0.00 | 73 | 1007.5 |
| 20260505071040 | 60 | 318 | 1.0 | 2.0 | 0.00 | 0.00 | 0.00 | 74 | 1007.5 |
| 20260505070538 | 60 | 338 | 1.0 | 2.0 | 0.00 | 0.00 | 0.00 | 73 | 1007.5 |
| 20260505070036 | 60 | 326 | 2.0 | 4.0 | 0.00 | 0.00 | 0.00 | 72 | 1007.4 |
| 20260505065534 | 60 | 315 | 1.0 | 4.0 | 0.00 | 0.00 | 0.00 | 72 | 1007.5 |
| 20260505065033 | 60 | 329 | 1.0 | 4.0 | 0.00 | 0.00 | 0.00 | 73 | 1007.5 |
| 20260505064531 | 60 | 338 | 0.0 | 2.0 | 0.00 | 0.00 | 0.00 | 73 | 1007.5 |
| 20260505064029 | 60 | 0.0 | 0.0 | 0.00 | 0.00 | 0.00 | 71 | 1007.6 | |
| 20260505063527 | 59 | 0.0 | 2.0 | 0.00 | 0.00 | 0.00 | 74 | 1007.5 | |
| 20260505063025 | 59 | 338 | 0.0 | 2.0 | 0.00 | 0.00 | 0.00 | 75 | 1007.5 |
| 20260505062523 | 59 | 338 | 0.0 | 2.0 | 0.00 | 0.00 | 0.00 | 75 | 1007.6 |
| 20260505062022 | 59 | 0.0 | 2.0 | 0.00 | 0.00 | 0.00 | 76 | 1007.5 | |
| 20260505061520 | 58 | 338 | 0.0 | 2.0 | 0.00 | 0.00 | 0.00 | 77 | 1007.5 |
| 20260505061018 | 58 | 338 | 0.0 | 2.0 | 0.00 | 0.00 | 0.00 | 77 | 1007.4 |
| 20260505060516 | 58 | 0.0 | 0.0 | 0.00 | 0.00 | 0.00 | 78 | 1007.5 | |
| 20260505060135 | 58 | 0.0 | 2.0 | 0.00 | 0.00 | 0.00 | 77 | 1007.5 | |
| 20260505055613 | 57 | 338 | 0.0 | 2.0 | 0.00 | 0.00 | 0.00 | 78 | 1007.5 |
| 20260505055112 | 57 | 338 | 1.0 | 2.0 | 0.00 | 0.00 | 0.00 | 79 | 1007.5 |
| 20260505054613 | 57 | 356 | 2.0 | 2.0 | 0.00 | 0.00 | 0.00 | 79 | 1007.5 |
| 20260505054128 | 57 | 23 | 1.0 | 2.0 | 0.00 | 0.00 | 0.00 | 78 | 1007.4 |
| 20260505053606 | 57 | 23 | 0.0 | 2.0 | 0.00 | 0.00 | 0.00 | 79 | 1007.4 |
| 20260505053104 | 57 | 0.0 | 2.0 | 0.00 | 0.00 | 0.00 | 79 | 1007.4 | |
| 20260505052603 | 57 | 0.0 | 2.0 | 0.00 | 0.00 | 0.00 | 79 | 1007.4 | |
| 20260505052101 | 57 | 0.0 | 0.0 | 0.00 | 0.00 | 0.00 | 80 | 1007.4 | |
| 20260505051600 | 57 | 0.0 | 2.0 | 0.00 | 0.00 | 0.00 | 80 | 1007.3 | |
| 20260505051058 | 57 | 23 | 0.0 | 2.0 | 0.00 | 0.00 | 0.00 | 79 | 1007.2 |
| 20260505050556 | 57 | 0.0 | 2.0 | 0.00 | 0.00 | 0.00 | 79 | 1007.3 | |
| 20260505041538 | 55 | 23 | 1.0 | 4.0 | 0.00 | 0.00 | 0.00 | 82 | 1007.2 |
| 20260505041037 | 55 | 341 | 2.0 | 4.0 | 0.00 | 0.00 | 0.00 | 82 | 1007.2 |
| 20260505040535 | 56 | 315 | 2.0 | 4.0 | 0.00 | 0.00 | 0.00 | 82 | 1007.2 |
| 20260505040033 | 55 | 338 | 1.0 | 4.0 | 0.00 | 0.00 | 0.00 | 82 | 1007.3 |
| 20260505035532 | 55 | 356 | 1.0 | 2.0 | 0.00 | 0.00 | 0.00 | 82 | 1007.3 |
| 20260505035030 | 56 | 0 | 1.0 | 2.0 | 0.00 | 0.00 | 0.00 | 80 | 1007.3 |
| 20260505034528 | 56 | 0 | 1.0 | 2.0 | 0.00 | 0.00 | 0.00 | 80 | 1007.4 |
| 20260505034026 | 57 | 0 | 0.0 | 2.0 | 0.00 | 0.00 | 0.00 | 79 | 1007.4 |
| 20260505033525 | 56 | 0 | 0.0 | 2.0 | 0.00 | 0.00 | 0.00 | 78 | 1007.5 |
| 20260505033023 | 57 | 45 | 1.0 | 2.0 | 0.00 | 0.00 | 0.00 | 78 | 1007.5 |
| 20260505032521 | 57 | 45 | 0.0 | 2.0 | 0.00 | 0.00 | 0.00 | 77 | 1007.7 |
| 20260505032019 | 57 | 45 | 0.0 | 2.0 | 0.00 | 0.00 | 0.00 | 77 | 1007.7 |
| 20260505031518 | 57 | 45 | 0.0 | 2.0 | 0.00 | 0.00 | 0.00 | 76 | 1007.8 |
| 20260505031016 | 57 | 0.0 | 2.0 | 0.00 | 0.00 | 0.00 | 76 | 1007.9 | |
| 20260505030615 | 57 | 50 | 0.0 | 4.0 | 0.00 | 0.00 | 0.00 | 78 | 1007.9 |
| 20260505030112 | 57 | 0.0 | 2.0 | 0.00 | 0.00 | 0.00 | 78 | 1008.0 | |
| 20260505025611 | 58 | 30 | 2.0 | 4.0 | 0.00 | 0.00 | 0.00 | 74 | 1008.0 |
| 20260505025109 | 58 | 8 | 2.0 | 4.0 | 0.00 | 0.00 | 0.00 | 75 | 1008.1 |
| 20260505024607 | 57 | 5 | 2.0 | 4.0 | 0.00 | 0.00 | 0.00 | 76 | 1008.1 |
| 20260505024106 | 57 | 3 | 3.0 | 6.0 | 0.00 | 0.00 | 0.00 | 76 | 1008.1 |
| 20260505023604 | 57 | 341 | 2.0 | 4.0 | 0.00 | 0.00 | 0.00 | 78 | 1008.2 |
| 20260505023102 | 57 | 338 | 2.0 | 4.0 | 0.00 | 0.00 | 0.00 | 78 | 1008.4 |
| 20260505022601 | 57 | 351 | 2.0 | 4.0 | 0.00 | 0.00 | 0.00 | 77 | 1008.4 |
| 20260505022059 | 57 | 346 | 2.0 | 4.0 | 0.00 | 0.00 | 0.00 | 77 | 1008.4 |
| 20260505021557 | 57 | 353 | 2.0 | 6.0 | 0.00 | 0.00 | 0.00 | 77 | 1008.3 |
| 20260505021055 | 57 | 343 | 3.0 | 6.0 | 0.00 | 0.00 | 0.00 | 75 | 1008.3 |
| 20260505020554 | 57 | 23 | 3.0 | 7.0 | 0.00 | 0.00 | 0.00 | 77 | 1008.4 |
| 20260505020052 | 57 | 352 | 3.0 | 6.0 | 0.00 | 0.00 | 0.00 | 76 | 1008.4 |
| 20260505015630 | 57 | 359 | 3.0 | 6.0 | 0.00 | 0.00 | 0.00 | 78 | 1008.4 |
| 20260505015048 | 56 | 15 | 2.0 | 6.0 | 0.00 | 0.00 | 0.00 | 79 | 1008.5 |
| 20260505014550 | 56 | 0 | 4.0 | 6.0 | 0.00 | 0.00 | 0.00 | 78 | 1008.5 |
| 20260505014045 | 56 | 342 | 3.0 | 8.0 | 0.00 | 0.00 | 0.00 | 80 | 1008.5 |
| 20260505013543 | 56 | 338 | 3.0 | 6.0 | 0.00 | 0.00 | 0.00 | 81 | 1008.5 |
| 20260505013041 | 56 | 332 | 4.0 | 9.0 | 0.00 | 0.00 | 0.00 | 81 | 1008.5 |
| 20260505012600 | 57 | 325 | 4.0 | 7.0 | 0.00 | 0.00 | 0.00 | 79 | 1008.6 |
| 20260505012038 | 57 | 4 | 4.0 | 7.0 | 0.00 | 0.00 | 0.00 | 77 | 1008.4 |
| 20260505011536 | 57 | 40 | 7.0 | 13.0 | 0.00 | 0.00 | 0.00 | 75 | 1008.4 |
| 20260505011034 | 56 | 29 | 8.0 | 14.0 | 0.00 | 0.00 | 0.00 | 78 | 1008.6 |
| 20260505010533 | 56 | 13 | 4.0 | 7.0 | 0.00 | 0.00 | 0.00 | 81 | 1008.9 |
| 20260505010031 | 56 | 338 | 3.0 | 7.0 | 0.00 | 0.00 | 0.00 | 82 | 1009.1 |
| 20260505005529 | 56 | 0 | 2.0 | 6.0 | 0.00 | 0.00 | 0.00 | 80 | 1009.2 |
| 20260505005027 | 56 | 345 | 2.0 | 6.0 | 0.00 | 0.00 | 0.00 | 79 | 1009.2 |
| 20260505004525 | 56 | 341 | 3.0 | 6.0 | 0.00 | 0.00 | 0.00 | 78 | 1009.3 |
| 20260505004024 | 56 | 315 | 3.0 | 4.0 | 0.00 | 0.00 | 0.00 | 78 | 1009.2 |
| 20260505003522 | 56 | 329 | 3.0 | 6.0 | 0.00 | 0.00 | 0.00 | 79 | 1009.4 |
| 20260505003020 | 56 | 322 | 2.0 | 4.0 | 0.00 | 0.00 | 0.00 | 79 | 1009.5 |
| 20260505002519 | 57 | 315 | 3.0 | 4.0 | 0.00 | 0.00 | 0.00 | 78 | 1009.6 |
| 20260505002017 | 57 | 311 | 3.0 | 6.0 | 0.00 | 0.00 | 0.00 | 75 | 1009.6 |
| 20260505001515 | 57 | 318 | 4.0 | 7.0 | 0.00 | 0.00 | 0.00 | 75 | 1009.5 |
| 20260505001113 | 56 | 324 | 3.0 | 7.0 | 0.00 | 0.00 | 0.00 | 79 | 1009.4 |
| 20260505000612 | 56 | 315 | 3.0 | 6.0 | 0.00 | 0.00 | 0.00 | 81 | 1009.7 |
| 20260505000110 | 56 | 318 | 3.0 | 4.0 | 0.00 | 0.00 | 0.00 | 81 | 1009.7 |
| 20260504235628 | 57 | 315 | 3.0 | 4.0 | 0.00 | 0.00 | 0.00 | 78 | 1009.8 |
| 20260504235107 | 57 | 330 | 3.0 | 4.0 | 0.00 | 0.00 | 0.00 | 75 | 1009.8 |
| 20260504234605 | 58 | 328 | 3.0 | 6.0 | 0.00 | 0.00 | 0.00 | 71 | 1009.8 |
| 20260504234103 | 59 | 334 | 2.0 | 4.0 | 0.00 | 0.00 | 0.00 | 70 | 1009.8 |
| 20260504233601 | 59 | 322 | 3.0 | 7.0 | 0.00 | 0.00 | 0.00 | 68 | 1009.8 |
| 20260504233059 | 59 | 334 | 3.0 | 4.0 | 0.00 | 0.00 | 0.00 | 67 | 1009.8 |
| 20260504232618 | 59 | 335 | 3.0 | 7.0 | 0.00 | 0.00 | 0.00 | 67 | 1009.6 |
| 20260504232116 | 59 | 341 | 4.0 | 7.0 | 0.00 | 0.00 | 0.00 | 66 | 1009.7 |
| 20260504231554 | 59 | 326 | 3.0 | 4.0 | 0.00 | 0.00 | 0.00 | 67 | 1009.7 |
| 20260504231052 | 59 | 333 | 3.0 | 6.0 | 0.00 | 0.00 | 0.00 | 66 | 1009.9 |
| 20260504230551 | 59 | 345 | 2.0 | 4.0 | 0.00 | 0.00 | 0.00 | 66 | 1009.9 |
| 20260504230050 | 60 | 348 | 3.0 | 6.0 | 0.00 | 0.00 | 0.00 | 66 | 1009.9 |
| 20260504225550 | 60 | 317 | 3.0 | 6.0 | 0.00 | 0.00 | 0.00 | 64 | 1010.0 |
| 20260504225046 | 60 | 328 | 3.0 | 6.0 | 0.00 | 0.00 | 0.00 | 64 | 1010.0 |
| 20260504224543 | 60 | 348 | 3.0 | 6.0 | 0.00 | 0.00 | 0.00 | 64 | 1010.0 |
| 20260504224042 | 60 | 344 | 3.0 | 7.0 | 0.00 | 0.00 | 0.00 | 64 | 1010.1 |